sat.trackr.live / text

‹ back to catalog

STARLINK-32304

NORAD 60738 · 2024-152U

PAYLOAD ACTIVE UNKNOWN

§ Identity

Operator
Country
US
Launch date
2024-08-28
Launch site
AFETR
Launch vehicle
Mass (kg)
RCS (m²)

Purposes: comms

External: N2YO · Heavens-Above · Gunter

§ Orbital elements

Epoch: 2026-05-25T01:56:05.371872Z

Period
94.11 min
Inclination
53.1604°
Eccentricity
0.0000747
Mean motion
15.30195117 rev/d
Perigee alt
474.7 km
Apogee alt
475.7 km
Semi-major
6,853.4 km
B*
7.4366e-7
RAAN
273.8122°
Arg perigee
87.9023°
Mean anomaly
272.2063°
Rev number
9,854

§ Raw data

STARLINK-323041 60738U 24152U   26145.08061773 -.00000337  00000+0  74366-6 0  99932 60738  53.1604 273.8122 0000747  87.9023 272.2063 15.30195117 98548

JSON: /api/v1/satellites/60738 · /tle

For live sub-satellite position, see the globe view (requires WebGL).

§ Visibility from observer

Set your observer location to see the next 7 days of passes ≥ 10°. The values pass through the URL so the page stays shareable.

No JS? Fill the form by hand. The geolocation button needs JavaScript.